Regional Weather Roundup
Issued by NWS

Home | Current Version | Previous Version | Text Only | Print | Product List | Glossary On
Versions: 1 2 3 4 5 6 7 8 9 10 11 12 13 14 15 16 17 18 19 20 21 22 23 24 25 26 27 28 29 30 31 32 33 34 35 36 37 38 39 40 41 42 43 44 45 46 47 48 49 50
000
ASUS43 KMKX 290021
RWRWI

WISCONSIN REGIONAL WEATHER ROUNDUP
NATIONAL WEATHER SERVICE MILWAUKEE/SULLIVAN WI
700 PM CDT WED SEP 28 2016

NOTE: "FAIR" INDICATES FEW OR NO CLOUDS BELOW 12,000 FEET WITH NO
SIGNIFICANT WEATHER AND/OR OBSTRUCTIONS TO VISIBILITY.

WIZ001-002-006>008-014>016-023>028-290100-
NORTHWEST WISCONSIN

CITY           SKY/WX    TMP DP  RH WIND       PRES   REMARKS
SUPERIOR ARPT  CLOUDY    54  51  88 N3        30.34R
6HR MIN TEMP:  54; 6HR MAX TEMP:  60;

ASHLAND        CLOUDY    55  51  86 NE9       30.33R
6HR MIN TEMP:  55; 6HR MAX TEMP:  58;

HAYWARD        CLOUDY    54  49  83 N12       30.32R
6HR MIN TEMP:  54; 6HR MAX TEMP:  59; 6HR PCP: TRACE;

SIREN          CLOUDY    56  48  73 NE7       30.32R
6HR MIN TEMP:  56; 6HR MAX TEMP:  59;

CUMBERLAND     CLOUDY    54  46  76 N10       30.30R
RICE LAKE      CLOUDY    57  48  73 N13       30.30R
6HR MIN TEMP:  57; 6HR MAX TEMP:  64;

CHETEK         NOT AVBL
LADYSMITH      CLOUDY    55  53  91 N12       30.30R
6HR MIN TEMP:  55; 6HR MAX TEMP:  63;

EAU CLAIRE     CLOUDY    59  52  77 N10       30.25R
6HR MIN TEMP:  59; 6HR MAX TEMP:  65;

MENOMONIE      CLOUDY    59  51  73 N10       30.26R
6HR MIN TEMP:  59; 6HR MAX TEMP:  68;

NEW RICHMOND   PTCLDY    56  49  75 N9        30.30R
6HR MIN TEMP:  56; 6HR MAX TEMP:  62;

OSCEOLA        CLOUDY    58  50  75 N7        30.34R
6HR MIN TEMP:  58; 6HR MAX TEMP:  61;

$$

WIZ003>005-009-010-017-018-290100-
NORTH CENTRAL WISCONSIN

CITY           SKY/WX    TMP DP  RH WIND       PRES   REMARKS
MANITOWISH WTR NOT AVBL
ARBOR VITAE    CLEAR     56  53  88 NE5       30.27R
6HR MIN TEMP:  56; 6HR MAX TEMP:  62; 6HR PCP:  0.01;

WOODRUFF       CLEAR     56  53  88 NE5       30.27R
6HR MIN TEMP:  56; 6HR MAX TEMP:  62; 6HR PCP:  0.01;

RHINELANDER    CLEAR     54  52  93 NE6       30.26R
6HR MIN TEMP:  54; 6HR MAX TEMP:  61;

EAGLE RIVER    CLEAR     52  51  97 CALM      30.27R
6HR MIN TEMP:  52; 6HR MAX TEMP:  61;

LAND O LAKES   PTCLDY    53  50  90 N8        30.29R
6HR MIN TEMP:  53; 6HR MAX TEMP:  59;

PHILLIPS       MOCLDY    55  53  94 N6        30.26R
6HR MIN TEMP:  54; 6HR MAX TEMP:  62;

TOMAHAWK       MOCLDY    56  50  80 NE8       30.25R
6HR MIN TEMP:  56; 6HR MAX TEMP:  61;

MEDFORD        CLEAR     54  50  85 NE5       30.23R
6HR MIN TEMP:  54; 6HR MAX TEMP:  62;

MERRILL        MOCLDY    56  51  81 CALM      30.24R
6HR MIN TEMP:  56; 6HR MAX TEMP:  62;

$$

WIZ029-030-035-036-043>047-290100-
CENTRAL WISCONSIN

CITY           SKY/WX    TMP DP  RH WIND       PRES   REMARKS
WAUSAU         CLEAR     57  47  69 N5        30.21R
6HR MIN TEMP:  57; 6HR MAX TEMP:  63;

MOSINEE        PTCLDY    55  48  76 NE7       30.23R
MARSHFIELD     CLEAR     57  47  69 N6        30.21R
6HR MIN TEMP:  57; 6HR MAX TEMP:  65;

STEVENS POINT  CLEAR     54  46  76 NE6       30.21R
6HR MIN TEMP:  54; 6HR MAX TEMP:  60;

WAUPACA        CLEAR     58  49  73 N3        30.20R
6HR MIN TEMP:  58; 6HR MAX TEMP:  64;

WAUTOMA        PTCLDY    57  51  80 N7        30.19R
6HR MIN TEMP:  56; 6HR MAX TEMP:  63;

WISC RAPIDS    CLEAR     56  49  77 CALM      30.21R
6HR MIN TEMP:  56; 6HR MAX TEMP:  63; 6HR PCP: TRACE;

CAMP DOUGLAS   CLEAR     55  50  82 N2        30.20R
6HR MIN TEMP:  55; 6HR MAX TEMP:  63; 6HR PCP: TRACE;

$$

WIZ011>013-019>022-031-037>040-048>050-290100-
NORTHEAST WISCONSIN

CITY           SKY/WX    TMP DP  RH WIND       PRES   REMARKS
ANTIGO         CLEAR     53  48  84 CALM      30.23R
6HR MIN TEMP:  53; 6HR MAX TEMP:  61;

SHAWANO        CLEAR     58  51  77 N5        30.21R
6HR MIN TEMP:  58; 6HR MAX TEMP:  65;

OCONTO         NOT AVBL
STURGEON BAY   CLEAR     58  52  80 N7        30.20R
6HR MIN TEMP:  58; 6HR MAX TEMP:  64; 6HR PCP:  0.34;

GREEN BAY      CLEAR     59  54  83 N13       30.19R
6HR MIN TEMP:  58; 6HR MAX TEMP:  63; 6HR PCP: TRACE;

MANITOWOC      CLEAR     59  52  77 MISG      30.17R
6HR MIN TEMP:  59; 6HR MAX TEMP:  62;

APPLETON       PTCLDY    57  46  67 NE9       30.17R
CLINTONVILLE   CLEAR     57  48  72 CALM      30.20R
OSHKOSH        CLEAR     59  48  67 N9        30.16R
6HR MIN TEMP:  58; 6HR MAX TEMP:  63; 6HR PCP:  0.01;

$$

WIZ032>034-041-042-053>061-290100-
SOUTHWEST WISCONSIN

CITY           SKY/WX    TMP DP  RH WIND       PRES   REMARKS
LA CROSSE      PTCLDY    61  51  70 N5        30.21R
6HR MIN TEMP:  59; 6HR MAX TEMP:  67; 6HR PCP:  0.06;

SPARTA         CLOUDY    58  52  80 CALM      30.22R
6HR MIN TEMP:  58; 6HR MAX TEMP:  64;

VIROQUA        CLOUDY    57  50  79 N5        30.21R
6HR MIN TEMP:  57; 6HR MAX TEMP:  64;

BOSCOBEL       CLOUDY    60  51  72 NE3       30.18R
6HR MIN TEMP:  60; 6HR MAX TEMP:  67; 6HR PCP: TRACE;

PRAIRIE DU CHI CLOUDY    60  51  72 N5        30.18R
6HR MIN TEMP:  59; 6HR MAX TEMP:  63;

PLATTEVILLE    CLEAR     56  53  90 N8        30.16R
6HR MIN TEMP:  56; 6HR MAX TEMP:  65;

$$

WIZ056-057-062-063-064-067-068-290100-
SOUTH CENTRAL WISCONSIN

CITY           SKY/WX    TMP DP  RH WIND       PRES   REMARKS
REEDSBURG      NOT AVBL
BARABOO/DELLS  CLEAR     56  49  76 N3        30.17R
6HR MIN TEMP:  56; 6HR MAX TEMP:  61;

LONE ROCK      CLEAR     57  48  72 N5        30.18R
6HR MIN TEMP:  56; 6HR MAX TEMP:  65; 6HR PCP: TRACE;

MINERAL POINT  CLEAR     55  52  88 N7        30.16R
MADISON        CLEAR     56  49  77 N7        30.14R
6HR MIN TEMP:  54; 6HR MAX TEMP:  62; 6HR PCP:  0.10;

MIDDLETON      CLEAR     56  50  80 N7        30.16R
6HR MIN TEMP:  56; 6HR MAX TEMP:  62; 6HR PCP:  0.02;

WATERTOWN      CLEAR     57  49  75 N7        30.13R
6HR MIN TEMP:  56; 6HR MAX TEMP:  63;

MONROE         CLEAR     55  50  82 N8        30.13R
JANESVILLE     PTCLDY    61  48  63 N12       30.10R
$$

WIZ051-052-058>065-066-070>072-290100-
SOUTHEAST WISCONSIN

CITY           SKY/WX    TMP DP  RH WIND       PRES   REMARKS
MILWAUKEE      PTCLDY    60  51  72 N17G28    30.10R
6HR MIN TEMP:  58; 6HR MAX TEMP:  62; 6HR PCP: TRACE;

WAUKESHA       CLEAR     55  46  71 N12       30.14R
MILWAUKEE/TIMM CLEAR     57  46  67 N13       30.13R
RACINE         LGT RAIN  56  50  80 N8        30.12R
6HR MIN TEMP:  57; 6HR MAX TEMP:  60; 6HR PCP:  0.01;

BURLINGTON     CLEAR     56  46  71 N9        30.12R
6HR MIN TEMP:  55; 6HR MAX TEMP:  63;

KENOSHA        LGT RAIN  59  51  75 N17G28    30.11R
6HR MIN TEMP:  59; 6HR MAX TEMP:  64; 6HR PCP: TRACE;

FOND DU LAC    CLEAR     59  49  69 NE13      30.17R
6HR MIN TEMP:  57; 6HR MAX TEMP:  64;

SHEBOYGAN      CLEAR     58  49  72 N8        30.14R
6HR MIN TEMP:  58; 6HR MAX TEMP:  62;

WEST BEND      CLEAR     55  48  76 N5        30.14R
JUNEAU         CLEAR     56  48  73 N7        30.15R
6HR MIN TEMP:  54; 6HR MAX TEMP:  62; 6HR PCP:  0.02;

$$

LSZ147-162-290100-
LAKE SUPERIOR

STATION/POSITION TIME  TEMP    WIND        PRES    WAVE
                       AIR SEA DIR/SP/G            HT/PER
                 (UTC) (F)     (DEG/KT/KT) (MB)    (FT/S)
W MID LAKE BUOY  2350   56 54   60/  8/  8 1026.6R   2/ 6
DEVILS ISLAND    0000   54      70/  6/  7 1027.5R
SAXON HARBOR     2340   57      30/ 11/ 12 1026.4R
$$

LMZ867-665-643>646-290100-
LAKE MICHIGAN

STATION/POSITION TIME  TEMP    WIND        PRES    WAVE
                       AIR SEA DIR/SP/G            HT/PER
                 (UTC) (F)     (DEG/KT/KT) (MB)    (FT/S)
CHAMBERS ISLAND  2300   62      40/ 12/ 16 1021.7R
S GREEN BAY BUOY 2300   62 62   50/ 17/ 19 1020.8
N MID LAKE BUOY  2350   63 66   40/ 17/ 19 1021.7R   3/ 4
NORTHPORT PIER   2C1F1C2F2C3F3C4F4C5F5C6F6C7F7C8M1C9M2Ca!



USA.gov is the U.S. government's official web portal to all federal, state and local government web resources and services.